Regional Weather Roundup
Issued by NWS

Home | Current Version | Previous Version | Text Only | Print | Product List | Glossary On
Versions: 1 2 3 4 5 6 7 8 9 10 11 12 13 14 15 16 17 18 19 20 21 22 23 24 25 26 27 28 29 30 31 32 33 34 35 36 37 38 39 40 41 42 43 44 45 46 47 48 49 50
000
ASUS45 KBOI 192210
RWRID

IDAHO REGIONAL WEATHER ROUNDUP
NATIONAL WEATHER SERVICE BOISE ID
300 PM MST SUN FEB 19 2017

NOTE: "FAIR" INDICATES FEW OR NO CLOUDS BELOW 12000 FEET
WITH NO SIGNIFICANT WEATHER AND/OR OBSTRUCTIONS TO VISIBILITY

IDZ012-014-192300-
SOUTHWEST IDAHO


CITY           SKY/WX    TMP DP  RH WIND       PRES   REMARKS
BOISE          PTSUNNY   45  40  82 NW17      29.67R
CALDWELL       PTSUNNY   46  37  71 NE5       29.67R
MOUNTAIN HOME  MOSUNNY   54  32  42 NW18      29.66R
$$

IDZ016-017-192300-
SOUTHCENTRAL IDAHO


CITY           SKY/WX    TMP DP  RH WIND       PRES   REMARKS
BURLEY         PTSUNNY   48  33  56 W13G21    29.68R
JEROME           N/A    N/A N/A N/A MISG      29.68R
TWIN FALLS     MOSUNNY   50  21  32 SW29G43   29.67S
$$

IDZ019>023-192300-
SOUTHEAST IDAHO


CITY           SKY/WX    TMP DP  RH WIND       PRES   REMARKS
IDAHO FALLS    CLOUDY    40  36  86 SW10      29.67S WCI  33
POCATELLO      HAIL      35  32  88 NW18G35   29.70R WCI  24
REXBURG        CLOUDY    41  34  76 SW14G22   29.66R
$$

IDZ006-010-011-018-031-032-192300-
CENTRAL IDAHO MOUNTAINS


CITY           SKY/WX    TMP DP  RH WIND       PRES   REMARKS
MCCALL         CLOUDY    33  29  85 E5        29.59R WCI  29
HAILEY         PTSUNNY   36  30  80 SE8       29.68R WCI  29
STANLEY          N/A     29  27  92 SE8       29.62R WCI  21
SALMON         MOSUNNY   45  28  53 SE10      29.53R
CHALLIS        FLURRIES  38  25  59 SW18G28   29.59R WCI  28
$$

IDZ002-004-006-007-026-192300-
NORTHERN IDAHO


CITY           SKY/WX    TMP DP  RH WIND       PRES   REMARKS
LEWISTON       LGT RAIN  44  38  79 CALM      29.58R
LOWELL           N/A     41  36  82 CALM      29.58R
COEUR D`ALENE  LGT RAIN  37  35  92 W6        29.55R WCI  32
MULLAN PASS    PTSUNNY   29  26  89 VRB5      29.48F WCI  24
$$



USA.gov is the U.S. government's official web portal to all federal, state and local government web resources and services.